Temple, TX

5:11 AM CST on December 09, 2019 (GMT -0600)
Draughon-Miller Central Texas Regional

Weather History for KTPL - November, 2019

Change the Weather History Date:

Saturday, November 16, 2019

  Actual Average Record
Temperature  
Mean Temperature 46 °F -  
Max Temperature 63 °F 65 °F 86 °F (2016)
Min Temperature 28 °F 47 °F 26 °F (1997)
Degree Days  
Heating Degree Days 20    
Moisture  
Dew Point 33 °F    
Average Humidity 85    
Maximum Humidity 100    
Minimum Humidity 38    
Precipitation  
Precipitation 0.00 in - - ()
Sea Level Pressure  
Sea Level Pressure 30.24 in    
Wind  
Wind Speed 3 mph (NNE)    
Max Wind Speed 12 mph    
Max Gust Speed -    
Visibility 6 miles    
Events Fog    
Averages and records for this station are not official NWS values.
T = Trace of Precipitation, MM = Missing Value Source: NWS Daily Summary

Daily Weather History Graph

Daily Weather History Graph

Search for Another Location

Airport or City:

Astronomy

Nov. 16, 2019 Rise Set
Actual Time 6:57 AM CST 5:30 PM CST
Civil Twilight 6:31 AM CST 5:56 PM CST
Nautical Twilight 6:02 AM CST 6:25 PM CST
Astronomical Twilight 5:33 AM CST 6:54 PM CST
Moon 9:11 PM CST (11/16) 10:45 AM CST (11/16)
Length of Visible Light 11h 24m
Length of Day
10h 33m
Waning Gibbous, 82% of the Moon is Illuminated
Nov 16
Waning Gibbous
Nov 19
Last Quarter
Nov 26
New
Dec 4
First Quarter
Dec 11
Full

Hourly Weather History & Observations

Time (CST) Temp. Windchill Dew Point Humidity Pressure Visibility Wind Dir Wind Speed Gust Speed Precip Events Conditions
12:01 AM 35.6 °F - 35.6 °F 100% 30.30 in 1.5 mi Calm Calm - N/A   Partly Cloudy
12:05 AM 33.8 °F - 33.8 °F 100% 30.30 in 0.8 mi Calm Calm - N/A   Mist
12:08 AM 33.8 °F - 33.8 °F 100% 30.30 in 0.2 mi Calm Calm - N/A Fog Fog
12:44 AM 33.8 °F 30.8 °F 33.8 °F 100% 30.29 in 1.2 mi NNW 3.5 mph - N/A   Overcast
12:51 AM 32.0 °F - 32.0 °F 100% 30.28 in 10.0 mi Calm Calm - N/A   Overcast
1:08 AM 32.0 °F - 32.0 °F 100% 30.28 in 1.5 mi Calm Calm - N/A   Overcast
1:11 AM 32.0 °F - 32.0 °F 100% 30.28 in 0.5 mi Calm Calm - N/A Fog Fog
1:24 AM 32.0 °F 28.7 °F 32.0 °F 100% 30.28 in 1.0 mi North 3.5 mph - N/A   Mostly Cloudy
1:26 AM 32.0 °F 28.7 °F 32.0 °F 100% 30.28 in 2.0 mi North 3.5 mph - N/A   Mostly Cloudy
1:31 AM 32.0 °F - 32.0 °F 100% 30.28 in 3.0 mi Calm Calm - N/A   Scattered Clouds
1:38 AM 30.2 °F - 30.2 °F 100% 30.28 in 2.5 mi Calm Calm - N/A   Partly Cloudy
1:46 AM 30.2 °F - 30.2 °F 100% 30.28 in 10.0 mi Calm Calm - N/A   Partly Cloudy
1:51 AM 30.9 °F - 30.9 °F 100% 30.28 in 10.0 mi Calm Calm - N/A   Clear
2:16 AM 30.2 °F - 30.2 °F 100% 30.28 in 0.5 mi Calm Calm - N/A Fog Light Freezing Fog
2:34 AM 30.2 °F 26.7 °F 30.2 °F 100% 30.27 in 0.2 mi North 3.5 mph - N/A Fog Light Freezing Fog
2:45 AM 30.2 °F 26.7 °F 30.2 °F 100% 30.27 in 0.8 mi North 3.5 mph - N/A   Overcast
2:55 AM 30.2 °F 26.7 °F 30.2 °F 100% 30.27 in 1.2 mi NNW 3.5 mph - N/A   Mostly Cloudy
2:59 AM 30.2 °F 25.4 °F 30.2 °F 100% 30.27 in 3.0 mi North 4.6 mph - N/A   Mostly Cloudy
3:07 AM 30.2 °F 25.4 °F 30.2 °F 100% 30.27 in 10.0 mi NNW 4.6 mph - N/A   Scattered Clouds
3:39 AM 28.4 °F 24.6 °F 28.4 °F 100% 30.26 in 1.8 mi North 3.5 mph - N/A   Partly Cloudy
3:48 AM 28.4 °F 24.6 °F 28.4 °F 100% 30.26 in 1.0 mi North 3.5 mph - N/A   Mist
3:51 AM 28.9 °F 25.2 °F 28.9 °F 100% 30.26 in 0.8 mi North 3.5 mph - N/A   Mist
4:14 AM 28.4 °F 24.6 °F 28.4 °F 100% 30.26 in 1.2 mi North 3.5 mph - N/A   Partly Cloudy
4:22 AM 28.4 °F 23.3 °F 28.4 °F 100% 30.26 in 3.0 mi North 4.6 mph - N/A   Clear
4:51 AM 28.9 °F 25.2 °F 28.9 °F 100% 30.25 in 8.0 mi North 3.5 mph - N/A   Clear
5:51 AM 30.0 °F 24.1 °F 30.0 °F 100% 30.25 in 10.0 mi NNW 5.8 mph - N/A   Clear
6:51 AM 28.0 °F 22.8 °F 28.0 °F 100% 30.26 in 10.0 mi North 4.6 mph - N/A   Clear
7:51 AM 33.1 °F - 33.1 °F 100% 30.29 in 10.0 mi North - - N/A   Clear
8:51 AM 39.9 °F - 39.0 °F 97% 30.30 in 10.0 mi Calm Calm - N/A   Clear
9:51 AM 51.1 °F - 37.9 °F 61% 30.28 in 10.0 mi SSE 8.1 mph - N/A   Clear
10:51 AM 55.0 °F - 37.0 °F 51% 30.26 in 10.0 mi South 9.2 mph - N/A   Clear
11:51 AM 57.9 °F - 37.9 °F 47% 30.22 in 10.0 mi SSE 11.5 mph - N/A   Clear
12:51 PM 60.1 °F - 37.0 °F 42% 30.17 in 10.0 mi SE 10.4 mph - N/A   Clear
1:51 PM 62.1 °F - 36.0 °F 38% 30.14 in 10.0 mi South 10.4 mph - N/A   Clear
2:51 PM 63.0 °F - 37.0 °F 38% 30.12 in 10.0 mi SE 6.9 mph - N/A   Clear
3:51 PM 61.0 °F - 37.0 °F 41% 30.11 in 10.0 mi SSE 8.1 mph - N/A   Clear
4:51 PM 57.9 °F - 37.9 °F 47% 30.11 in 10.0 mi South 6.9 mph - N/A   Clear
5:51 PM 55.0 °F - 37.0 °F 51% 30.11 in 10.0 mi SE 5.8 mph - N/A   Clear
6:51 PM 52.0 °F - 37.9 °F 59% 30.12 in 10.0 mi ESE 6.9 mph - N/A   Clear
7:51 PM 51.1 °F - 37.9 °F 61% 30.11 in 10.0 mi ESE 5.8 mph - N/A   Clear
10:51 PM 45.0 °F 41.2 °F 37.9 °F 76% 30.09 in 10.0 mi South 6.9 mph - N/A   Clear
11:51 PM 46.9 °F - 39.9 °F 77% 30.07 in 10.0 mi South 11.5 mph - N/A   Clear